�������l�o���
Date,Time,MP-1(��Sv/h),MP-2(��Sv/h),MP-3(��Sv/h),MP-4(��Sv/h),MP-5(��Sv/h),MP-6(��Sv/h),MP-7(��Sv/h),MP-8(��Sv/h),����,����(m/s),���J
2023/08/14,00:00,0.534,0.807,0.497,0.987,0.723,0.323,0.571,0.530,�k��,2.0,��
2023/08/14,00:10,0.533,0.808,0.495,0.987,0.724,0.322,0.572,0.531,���k��,3.2,��
2023/08/14,00:20,0.533,0.805,0.495,0.987,0.722,0.322,0.571,0.531,���k��,2.3,��
2023/08/14,00:30,0.534,0.807,0.495,0.986,0.724,0.323,0.570,0.532,��,2.3,��
2023/08/14,00:40,0.533,0.808,0.496,0.987,0.722,0.321,0.571,0.531,���k��,3.5,�L
2023/08/14,00:50,0.534,0.807,0.495,0.986,0.722,0.322,0.570,0.531,���k��,3.1,��
2023/08/14,01:00,0.533,0.807,0.497,0.985,0.722,0.322,0.571,0.532,���k��,3.2,��
2023/08/14,01:10,0.534,0.808,0.495,0.985,0.722,0.322,0.571,0.531,���k��,3.7,��
2023/08/14,01:20,0.533,0.807,0.495,0.986,0.722,0.322,0.570,0.530,��,4.2,�L
2023/08/14,01:30,0.534,0.804,0.494,0.985,0.719,0.322,0.569,0.529,��,4.3,�L
2023/08/14,01:40,0.530,0.805,0.493,0.984,0.714,0.320,0.567,0.529,��,4.6,�L
2023/08/14,01:50,0.531,0.804,0.492,0.984,0.713,0.320,0.566,0.528,��,6.8,�L
2023/08/14,02:00,0.525,0.793,0.485,0.962,0.698,0.317,0.563,0.523,���쓌,6.5,�L
2023/08/14,02:10,0.524,0.787,0.484,0.960,0.700,0.316,0.565,0.526,�쓌,4.2,�L
2023/08/14,02:20,0.523,0.790,0.483,0.959,0.700,0.318,0.565,0.525,�쓌,2.6,�L
2023/08/14,02:30,0.524,0.789,0.487,0.962,0.700,0.316,0.564,0.525,��,2.0,�L
2023/08/14,02:40,0.525,0.789,0.485,0.962,0.700,0.316,0.563,0.526,���k��,4.0,�L
2023/08/14,02:50,0.525,0.790,0.484,0.962,0.701,0.316,0.565,0.526,���k��,4.7,�L
2023/08/14,03:00,0.524,0.792,0.483,0.962,0.701,0.316,0.564,0.525,��,4.9,�L
2023/08/14,03:10,0.525,0.791,0.484,0.963,0.700,0.316,0.563,0.526,��,5.2,��
2023/08/14,03:20,0.525,0.790,0.485,0.963,0.700,0.316,0.563,0.525,��,5.2,�L
2023/08/14,03:30,0.524,0.787,0.483,0.963,0.693,0.315,0.562,0.523,��,5.6,��
2023/08/14,03:40,0.525,0.788,0.485,0.960,0.696,0.313,0.561,0.524,��,4.9,��
2023/08/14,03:50,0.526,0.790,0.484,0.961,0.697,0.315,0.563,0.526,��,5.5,��
2023/08/14,04:00,0.525,0.789,0.484,0.961,0.698,0.315,0.562,0.525,��,5.1,��
2023/08/14,04:10,0.525,0.792,0.484,0.961,0.698,0.315,0.563,0.525,��,4.5,��
2023/08/14,04:20,0.524,0.790,0.485,0.963,0.696,0.316,0.563,0.524,��,4.1,��
2023/08/14,04:30,0.527,0.791,0.486,0.963,0.699,0.314,0.564,0.526,��,3.1,��
2023/08/14,04:40,0.525,0.791,0.486,0.960,0.699,0.316,0.562,0.526,���k��,3.2,��
2023/08/14,04:50,0.526,0.791,0.484,0.962,0.699,0.316,0.563,0.524,��,3.3,��
2023/08/14,05:00,0.527,0.794,0.487,0.962,0.698,0.316,0.564,0.527,���k��,2.0,��
2023/08/14,05:10,0.525,0.793,0.483,0.960,0.698,0.317,0.563,0.526,���k��,2.2,��
2023/08/14,05:20,0.526,0.791,0.485,0.962,0.699,0.315,0.563,0.527,���k��,2.9,��
2023/08/14,05:30,0.526,0.791,0.486,0.962,0.700,0.315,0.562,0.526,�k��,2.9,��
2023/08/14,05:40,0.525,0.790,0.486,0.963,0.698,0.317,0.562,0.525,���k��,3.1,��
2023/08/14,05:50,0.527,0.792,0.484,0.964,0.699,0.317,0.563,0.528,���k��,2.8,��
2023/08/14,06:00,0.527,0.793,0.486,0.965,0.699,0.317,0.564,0.526,���k��,2.2,��
2023/08/14,06:10,0.526,0.795,0.486,0.963,0.699,0.317,0.564,0.527,�k��,1.5,��
2023/08/14,06:20,0.526,0.790,0.486,0.962,0.698,0.317,0.565,0.525,���k��,1.9,��
2023/08/14,06:30,0.525,0.791,0.486,0.964,0.699,0.317,0.563,0.525,�k��,1.1,��
2023/08/14,06:40,0.527,0.793,0.486,0.963,0.698,0.318,0.566,0.528,�k��,1.5,��
2023/08/14,06:50,0.526,0.794,0.487,0.964,0.699,0.318,0.565,0.527,�k��,2.9,��
2023/08/14,07:00,0.526,0.794,0.486,0.963,0.699,0.318,0.565,0.526,�k��,2.0,��
2023/08/14,07:10,0.526,0.795,0.485,0.961,0.699,0.319,0.565,0.524,�k��,1.7,��
2023/08/14,07:20,0.526,0.792,0.488,0.962,0.701,0.317,0.565,0.526,�k��,3.5,��
2023/08/14,07:30,0.527,0.795,0.486,0.964,0.701,0.317,0.565,0.525,�k��,3.2,��
2023/08/14,07:40,0.528,0.796,0.489,0.963,0.701,0.317,0.565,0.526,�k��,3.5,��
2023/08/14,07:50,0.528,0.796,0.488,0.964,0.702,0.318,0.566,0.527,�k��,4.0,��
2023/08/14,08:00,0.528,0.794,0.487,0.961,0.701,0.318,0.566,0.527,�k��,4.0,��
2023/08/14,08:10,0.528,0.793,0.486,0.961,0.701,0.318,0.568,0.526,�k��,3.9,��
2023/08/14,08:20,0.527,0.795,0.488,0.963,0.702,0.318,0.566,0.527,�k�k��,4.7,�L
2023/08/14,08:30,0.527,0.793,0.486,0.962,0.701,0.317,0.567,0.527,�k�k��,4.1,�L
2023/08/14,08:40,0.525,0.795,0.486,0.966,0.704,0.319,0.565,0.527,�k��,4.5,�L
2023/08/14,08:50,0.526,0.790,0.486,0.961,0.699,0.317,0.564,0.526,�k��,4.3,�L
2023/08/14,09:00,0.524,0.784,0.484,0.960,0.697,0.315,0.561,0.523,�k��,3.6,�L
2023/08/14,09:10,0.523,0.781,0.480,0.956,0.689,0.312,0.558,0.525,���k��,5.7,�L
2023/08/14,09:20,0.524,0.781,0.481,0.952,0.682,0.312,0.559,0.523,���k��,4.7,�L
2023/08/14,09:30,0.522,0.782,0.481,0.951,0.687,0.312,0.560,0.522,��,4.6,��
2023/08/14,09:40,0.524,0.784,0.482,0.954,0.688,0.312,0.562,0.524,��,3.8,�L
2023/08/14,09:50,0.525,0.787,0.482,0.955,0.691,0.315,0.561,0.525,���쓌,2.6,��
2023/08/14,10:00,0.525,0.787,0.484,0.955,0.693,0.315,0.562,0.525,��,2.5,�L
2023/08/14,10:10,0.525,0.787,0.484,0.955,0.694,0.314,0.562,0.523,���쓌,2.0,�L
2023/08/14,10:20,0.525,0.786,0.482,0.955,0.693,0.314,0.561,0.523,���쓌,1.7,�L
2023/08/14,10:30,0.524,0.781,0.481,0.955,0.694,0.314,0.561,0.524,���쓌,2.2,�L
2023/08/14,10:40,0.522,0.778,0.480,0.955,0.694,0.315,0.562,0.523,�쓌,2.3,��
2023/08/14,10:50,0.523,0.780,0.479,0.958,0.696,0.314,0.564,0.525,���k��,1.5,��
2023/08/14,11:00,0.524,0.782,0.481,0.958,0.695,0.315,0.562,0.524,���k��,2.3,��
2023/08/14,11:10,0.525,0.781,0.481,0.957,0.695,0.316,0.561,0.523,���k��,2.5,��
2023/08/14,11:20,0.526,0.781,0.481,0.957,0.696,0.316,0.561,0.523,�k��,3.1,�L
2023/08/14,11:30,0.526,0.786,0.484,0.958,0.696,0.315,0.561,0.524,�k��,2.3,��
2023/08/14,11:40,0.524,0.783,0.482,0.957,0.697,0.316,0.562,0.525,�k��,2.3,�L
2023/08/14,11:50,0.526,0.785,0.484,0.958,0.698,0.317,0.563,0.524,��,2.8,��
2023/08/14,12:00,0.526,0.787,0.484,0.958,0.699,0.316,0.563,0.524,���쓌,2.8,��
2023/08/14,12:10,0.525,0.786,0.484,0.957,0.698,0.317,0.563,0.524,���쓌,3.0,��
2023/08/14,12:20,0.528,0.786,0.483,0.958,0.697,0.316,0.563,0.525,���쓌,3.4,��
2023/08/14,12:30,0.527,0.787,0.484,0.957,0.699,0.317,0.563,0.525,���쓌,2.8,��
2023/08/14,12:40,0.528,0.790,0.485,0.958,0.699,0.318,0.564,0.526,���쓌,3.2,��
2023/08/14,12:50,0.529,0.789,0.485,0.957,0.699,0.317,0.565,0.526,��,2.3,��
2023/08/14,13:00,0.528,0.789,0.486,0.958,0.700,0.318,0.563,0.525,�쓌,3.2,��
2023/08/14,13:10,0.529,0.791,0.485,0.960,0.702,0.317,0.565,0.527,�쓌,4.2,��
2023/08/14,13:20,0.528,0.793,0.486,0.959,0.702,0.317,0.565,0.526,���쓌,3.7,��
2023/08/14,13:30,0.529,0.793,0.488,0.960,0.701,0.317,0.564,0.526,�쓌,3.5,��
2023/08/14,13:40,0.530,0.792,0.487,0.961,0.702,0.318,0.565,0.526,���쓌,3.4,��
2023/08/14,13:50,0.530,0.792,0.489,0.962,0.704,0.317,0.566,0.526,���쓌,3.7,��
2023/08/14,14:00,0.528,0.791,0.489,0.962,0.703,0.317,0.563,0.528,���쓌,3.7,��
2023/08/14,14:10,0.529,0.794,0.489,0.963,0.706,0.319,0.565,0.526,�쓌,3.9,��
2023/08/14,14:20,0.530,0.794,0.488,0.963,0.704,0.318,0.566,0.528,���쓌,4.7,��
2023/08/14,14:30,0.532,0.794,0.489,0.961,0.703,0.318,0.566,0.526,�쓌,4.4,��
2023/08/14,14:40,0.531,0.796,0.489,0.962,0.705,0.318,0.566,0.527,���쓌,5.4,��
2023/08/14,14:50,0.531,0.794,0.490,0.962,0.704,0.317,0.565,0.528,�쓌,5.0,��
2023/08/14,15:00,0.533,0.794,0.490,0.963,0.705,0.318,0.567,0.528,�쓌,4.1,��
2023/08/14,15:10,0.533,0.795,0.491,0.964,0.706,0.318,0.566,0.528,�쓌,4.2,��
2023/08/14,15:20,0.533,0.796,0.491,0.963,0.705,0.316,0.565,0.526,�쓌,3.4,��
2023/08/14,15:30,0.533,0.797,0.490,0.968,0.705,0.318,0.566,0.528,�쓌,2.9,��
2023/08/14,15:40,0.532,0.795,0.490,0.963,0.706,0.317,0.566,0.528,��쓌,2.9,��
2023/08/14,15:50,0.531,0.796,0.490,0.968,0.705,0.319,0.565,0.527,��쓌,2.2,��
2023/08/14,16:00,0.532,0.794,0.491,0.964,0.706,0.318,0.567,0.528,��쓌,2.5,��
2023/08/14,16:10,0.532,0.796,0.490,0.965,0.705,0.318,0.566,0.527,��쓌,3.7,��
2023/08/14,16:20,0.532,0.796,0.489,0.967,0.704,0.317,0.566,0.528,��쓌,3.5,��
2023/08/14,16:30,0.532,0.796,0.489,0.965,0.706,0.317,0.568,0.527,��쓌,4.0,��
2023/08/14,16:40,0.533,0.796,0.488,0.965,0.706,0.317,0.567,0.529,�쓌,3.8,��
2023/08/14,16:50,0.532,0.797,0.489,0.968,0.707,0.317,0.565,0.526,��쓌,4.4,��
2023/08/14,17:00,0.533,0.797,0.489,0.969,0.706,0.319,0.567,0.528,��쓌,3.8,��
2023/08/14,17:10,0.534,0.798,0.490,0.967,0.707,0.319,0.567,0.527,��쓌,3.5,��
2023/08/14,17:20,0.532,0.793,0.490,0.968,0.706,0.318,0.567,0.528,�쓌,3.1,��
2023/08/14,17:30,0.530,0.796,0.489,0.968,0.705,0.318,0.567,0.527,��쓌,3.5,��
2023/08/14,17:40,0.529,0.794,0.489,0.970,0.707,0.318,0.567,0.528,�쓌,3.5,��
2023/08/14,17:50,0.530,0.796,0.489,0.970,0.706,0.318,0.566,0.527,�쓌,3.3,��
2023/08/14,18:00,0.533,0.796,0.490,0.969,0.705,0.319,0.566,0.527,��쓌,3.1,��
2023/08/14,18:10,0.534,0.795,0.490,0.967,0.709,0.318,0.567,0.526,�쓌,3.5,��
2023/08/14,18:20,0.532,0.794,0.490,0.969,0.706,0.319,0.565,0.526,��쓌,3.2,��
2023/08/14,18:30,0.531,0.797,0.489,0.968,0.706,0.317,0.565,0.529,��쓌,3.2,��
2023/08/14,18:40,0.530,0.793,0.492,0.966,0.708,0.318,0.567,0.526,�쓌,3.5,��
2023/08/14,18:50,0.532,0.795,0.490,0.967,0.708,0.319,0.565,0.526,�쓌,3.2,��
2023/08/14,19:00,0.531,0.796,0.491,0.967,0.707,0.319,0.567,0.528,�쓌,3.2,��
2023/08/14,19:10,0.530,0.795,0.492,0.967,0.706,0.318,0.567,0.528,�쓌,3.5,��
2023/08/14,19:20,0.532,0.796,0.492,0.970,0.708,0.319,0.566,0.526,�쓌,3.8,�L
2023/08/14,19:30,0.531,0.796,0.491,0.966,0.708,0.318,0.566,0.528,��쓌,3.0,�L
2023/08/14,19:40,0.532,0.800,0.491,0.967,0.707,0.318,0.565,0.528,�쓌,3.2,��
2023/08/14,19:50,0.532,0.798,0.488,0.969,0.706,0.319,0.564,0.527,��쓌,3.0,��
2023/08/14,20:00,0.533,0.798,0.491,0.968,0.705,0.318,0.565,0.528,��쓌,2.9,��
2023/08/14,20:10,0.531,0.795,0.490,0.969,0.707,0.319,0.565,0.527,��쓌,2.5,��
2023/08/14,20:20,0.531,0.796,0.490,0.969,0.706,0.320,0.565,0.527,��쓌,2.5,��
2023/08/14,20:30,0.532,0.799,0.489,0.967,0.706,0.319,0.566,0.527,�쓌,3.2,��
2023/08/14,20:40,0.531,0.798,0.492,0.969,0.708,0.319,0.565,0.525,�쓌,3.6,��
2023/08/14,20:50,0.532,0.796,0.492,0.968,0.707,0.320,0.566,0.527,�쓌,3.0,��
2023/08/14,21:00,0.532,0.798,0.490,0.968,0.707,0.319,0.565,0.528,�쓌,3.4,��
2023/08/14,21:10,0.532,0.798,0.490,0.968,0.706,0.320,0.565,0.528,�쓌,3.5,��
2023/08/14,21:20,0.531,0.796,0.491,0.969,0.708,0.321,0.566,0.529,�쓌,2.9,�L
2023/08/14,21:30,0.532,0.797,0.490,0.969,0.707,0.317,0.566,0.527,�쓌,4.2,��
2023/08/14,21:40,0.532,0.798,0.490,0.967,0.707,0.318,0.567,0.528,�쓌,5.1,��
2023/08/14,21:50,0.532,0.798,0.491,0.968,0.708,0.319,0.566,0.528,�쓌,4.9,��
2023/08/14,22:00,0.532,0.797,0.490,0.968,0.707,0.318,0.567,0.528,�쓌,4.3,��
2023/08/14,22:10,0.532,0.798,0.492,0.969,0.708,0.318,0.567,0.528,�쓌,5.5,��
2023/08/14,22:20,0.531,0.798,0.491,0.968,0.706,0.318,0.566,0.526,�쓌,5.4,��
2023/08/14,22:30,0.533,0.797,0.491,0.969,0.709,0.321,0.566,0.528,�쓌,3.9,��
2023/08/14,22:40,0.533,0.798,0.492,0.968,0.708,0.320,0.567,0.528,�쓌,3.5,��
2023/08/14,22:50,0.531,0.797,0.491,0.969,0.706,0.318,0.566,0.527,��쓌,3.6,��
2023/08/14,23:00,0.531,0.798,0.490,0.970,0.707,0.318,0.566,0.528,��쓌,3.7,��
2023/08/14,23:10,0.533,0.797,0.491,0.968,0.707,0.318,0.567,0.527,��쓌,4.3,��
2023/08/14,23:20,0.531,0.798,0.493,0.970,0.707,0.319,0.568,0.529,��쓌,4.2,��
2023/08/14,23:30,0.531,0.798,0.493,0.968,0.707,0.320,0.568,0.530,��쓌,3.4,�L
2023/08/14,23:40,0.530,0.797,0.491,0.967,0.709,0.319,0.568,0.527,��쓌,3.0,��
2023/08/14,23:50,0.532,0.798,0.491,0.969,0.709,0.320,0.567,0.529,��쓌,3.8,��
